Lid_Strength_Index
13 13 14 13 13 12 11 11 11 11 11 11 12 11 11 12 11 11 10 10 10 9 7 7 6 7 8 7 7 6 5 4 6 14 14 14 14 12 11 9 9 9 8
14 14 14 13 13 13 12 12 11 11 12 12 12 12 12 12 12 12 12 11 10 9 8 7 6 5 8 7 7 7 5 4 5 14 14 14 13 12 13 12 11 10 10
15 15 14 14 14 13 12 12 12 12 12 12 12 13 13 13 13 13 12 12 11 10 8 8 6 5 7 8 8 8 6 5 6 12 13 13 14 13 14 14 13 13 11
15 15 14 14 13 13 12 12 12 12 12 13 13 13 13 13 13 13 13 12 11 11 9 8 7 6 5 7 8 8 6 7 6 11 12 14 15 15 14 15 15 15 16
16 15 15 14 13 12 12 12 12 12 13 13 14 14 13 13 13 14 13 12 12 11 10 9 7 6 5 6 8 7 7 9 10 11 14 15 16 17 16 16 17 17 17
16 15 15 13 13 13 13 12 12 13 13 14 15 15 14 14 13 12 13 13 12 11 11 10 9 7 6 5 8 8 7 10 11 12 14 15 16 16 16 17 18 20 22
15 15 15 13 13 13 13 13 13 14 14 15 16 15 16 15 12 13 14 14 14 13 10 10 10 8 7 6 8 8 8 8 9 10 13 14 15 15 17 18 18 18 21
15 15 14 14 13 13 13 13 13 13 15 15 15 15 16 16 13 13 15 15 14 13 12 10 9 8 7 7 9 11 11 11 10 10 11 12 13 15 15 16 19 20 20
15 15 15 14 14 14 14 13 14 15 15 15 14 15 16 16 13 14 16 16 15 14 13 11 9 8 7 7 11 12 13 13 10 10 11 12 13 14 17 19 20 22 23
14 16 16 14 13 13 13 13 15 16 15 14 14 14 15 16 14 14 16 18 17 15 13 12 9 9 8 9 12 14 15 15 14 14 14 15 17 17 17 18 18 21 22
15 18 15 13 13 13 13 16 16 16 15 14 14 14 15 16 16 13 14 18 18 18 15 13 12 10 11 12 13 15 16 15 17 18 18 20 21 21 20 18 17 18 21
16 20 15 13 13 13 13 14 15 15 15 16 16 16 16 15 15 14 14 15 16 18 19 17 15 14 14 14 14 14 15 17 20 21 23 24 25 25 24 23 23 22 20
18 22 15 14 13 12 13 13 13 13 15 16 17 17 16 16 15 14 15 15 15 18 18 17 17 18 18 17 16 17 19 21 23 24 26 27 26 25 25 25 24 24 24
18 22 16 14 13 12 12 12 13 13 14 16 16 17 16 15 15 15 15 16 16 17 17 18 17 18 19 20 21 22 22 23 24 25 26 26 25 25 25 24 25 25 26
17 19 16 15 14 13 13 13 13 12 12 18 19 17 17 16 15 14 15 16 17 17 18 19 20 20 21 22 22 23 23 23 23 24 24 25 25 25 25 23 24 24 25
15 17 17 15 14 14 14 14 11 11 11 11 11 13 15 12 12 13 13 14 15 16 19 21 22 22 23 22 23 23 23 23 23 23 23 24 24 25 25 25 24 25 26
15 16 17 16 15 14 14 15 15 17 13 11 11 11 11 12 12 13 13 14 14 17 20 21 21 22 22 23 23 23 24 23 22 23 23 23 24 24 24 24 24 25 26
14 15 16 16 16 15 14 14 15 15 16 21 14 13 12 12 13 14 14 17 20 20 22 22 23 23 23 23 23 23 23 23 23 23 23 23 23 24 25 25 26 27 27
16 16 16 15 16 17 16 15 15 16 16 17 22 17 18 13 15 16 17 24 26 25 25 24 25 25 24 24 24 24 24 24 24 24 25 25 25 25 26 26 27 27 27
17 14 14 16 16 18 18 15 15 15 15 15 16 23 24 21 23 27 28 29 27 29 28 27 28 27 26 26 25 25 25 25 25 25 26 26 26 26 27 27 27 29 29
16 15 15 17 17 17 17 17 16 16 16 15 16 23 15 21 19 28 29 30 30 30 29 29 30 29 28 27 26 27 26 27 27 27 27 28 28 28 28 28 29 30 30
15 16 16 17 19 20 20 17 17 17 17 17 17 19 14 16 19 28 29 30 31 31 30 28 29 30 29 27 27 27 28 29 29 29 29 30 30 30 30 30 31 31 32
15 15 15 17 19 21 22 21 21 21 21 22 25 23 20 19 18 26 28 30 30 31 31 28 28 29 32 29 29 26 26 27 27 27 29 30 30 30 30 30 31 32 35
15 14 15 16 19 20 20 22 21 22 22 23 24 24 24 19 18 19 25 28 31 32 30 29 28 28 30 30 30 31 30 29 28 28 28 29 31 31 31 32 33 34 33
15 15 16 18 19 19 21 21 21 22 23 22 23 24 24 25 25 25 25 26 26 27 29 29 29 28 28 29 29 30 28 26 29 29 29 30 31 32 31 32 32 35 38
17 17 18 19 18 19 19 20 21 22 21 22 23 23 23 23 22 22 24 25 24 25 26 27 28 28 28 28 28 26 25 26 28 29 29 29 30 31 31 33 34 33 36